Fort Worth Alliance, TX

11:23 PM CDT on April 30, 2017 (GMT -0500)
Fort Worth Alliance

Weather History for KAFW - September, 2013

Change the Weather History Date:

Sunday, September 1, 2013

  Actual Average Record
Temperature  
Mean Temperature 92 °F -  
Max Temperature 106 °F 90 °F 109 °F (2000)
Min Temperature 77 °F 68 °F 62 °F (2004)
Cooling Degree Days 27    
Growing Degree Days 42 (Base 50)    
Moisture  
Dew Point 62 °F    
Average Humidity 40    
Maximum Humidity 88    
Minimum Humidity 22    
Precipitation  
Precipitation 0.27 in - - ()
Sea Level Pressure  
Sea Level Pressure 29.78 in    
Wind  
Wind Speed 6 mph (South)    
Max Wind Speed 15 mph    
Max Gust Speed 17 mph    
Visibility 10 miles    
Events Rain , Thunderstorm    
Averages and records for this station are not official NWS values.
T = Trace of Precipitation, MM = Missing Value Source: NWS Daily Summary

Daily Weather History Graph

Daily Weather History Graph

Search for Another Location

Airport or City:

Trip Planner

Search our weather history database for the weather conditions in past years. The results will help you decide how hot, cold, wet, or windy it might be!

Date:

Astronomy

Sep. 01, 2013 Rise Set
Actual Time 7:03 AM CDT 7:53 PM CDT
Civil Twilight 6:38 AM CDT 8:18 PM CDT
Nautical Twilight 6:08 AM CDT 8:48 PM CDT
Astronomical Twilight 5:38 AM CDT 9:19 PM CDT
Moon 3:34 AM CDT 5:25 PM CDT
Length of Visible Light 13h 40m
Length of Day
12h 49m
Waning Crescent, 13% of the Moon is Illuminated
Sep 1
Waning Crescent
Sep 5
New
Sep 12
First Quarter
Sep 19
Full
Sep 26
Last Quarter

Hourly Weather History & Observations

Time (CDT) Temp. Heat Index Dew Point Humidity Pressure Visibility Wind Dir Wind Speed Gust Speed Precip Events Conditions
12:53 AM 86.0 °F 86.1 °F 61.0 °F 43% 29.75 in 10.0 mi South 6.9 mph - N/A   Clear
1:53 AM 84.9 °F 85.0 °F 61.0 °F 44% 29.75 in 10.0 mi South 3.5 mph - N/A   Clear
2:53 AM 84.9 °F 85.9 °F 63.0 °F 48% 29.76 in 10.0 mi SSW 4.6 mph - N/A   Clear
3:53 AM 84.0 °F 84.9 °F 63.0 °F 49% 29.77 in 10.0 mi SSW 4.6 mph - N/A   Clear
4:53 AM 82.0 °F 83.4 °F 64.0 °F 54% 29.77 in 10.0 mi Variable 4.6 mph - N/A   Clear
5:53 AM 81.0 °F 82.5 °F 64.0 °F 56% 29.77 in 10.0 mi Calm Calm - N/A   Clear
6:53 AM 79.0 °F - 64.9 °F 62% 29.78 in 10.0 mi SSW 3.5 mph - N/A   Clear
7:53 AM 82.0 °F 83.8 °F 64.9 °F 56% 29.80 in 10.0 mi SSW 3.5 mph - N/A   Clear
8:53 AM 86.0 °F 87.6 °F 64.9 °F 49% 29.81 in 10.0 mi SW 10.4 mph - N/A   Clear
9:53 AM 91.0 °F 92.6 °F 64.0 °F 41% 29.83 in 10.0 mi SW 8.1 mph - N/A   Scattered Clouds
10:53 AM 93.9 °F 95.2 °F 63.0 °F 36% 29.82 in 10.0 mi WSW 6.9 mph - N/A   Partly Cloudy
11:53 AM 98.1 °F 99.6 °F 63.0 °F 31% 29.82 in 10.0 mi Variable 4.6 mph - N/A   Clear
12:53 PM 100.0 °F 101.2 °F 61.0 °F 28% 29.81 in 10.0 mi Calm Calm - N/A   Scattered Clouds
1:53 PM 104.0 °F 105.3 °F 60.1 °F 24% 29.78 in 10.0 mi South 8.1 mph - N/A   Scattered Clouds
2:53 PM 104.0 °F 104.6 °F 59.0 °F 23% 29.76 in 10.0 mi West 4.6 mph - N/A   Scattered Clouds
3:53 PM 105.1 °F 105.7 °F 59.0 °F 22% 29.73 in 10.0 mi ESE 13.8 mph 17.3 mph N/A   Scattered Clouds
4:53 PM 102.9 °F 103.0 °F 57.9 °F 23% 29.71 in 10.0 mi ESE 10.4 mph - N/A   Partly Cloudy
5:53 PM 100.9 °F 100.5 °F 57.9 °F 24% 29.71 in 10.0 mi South 5.8 mph - N/A   Partly Cloudy
6:53 PM 99.0 °F 98.1 °F 57.9 °F 25% 29.73 in 10.0 mi ESE 8.1 mph - N/A   Partly Cloudy
7:53 PM 97.0 °F 96.9 °F 60.1 °F 29% 29.73 in 10.0 mi SE 5.8 mph - N/A   Partly Cloudy
8:53 PM 93.9 °F 93.6 °F 60.1 °F 32% 29.74 in 10.0 mi SE 3.5 mph - N/A   Partly Cloudy
9:53 PM 93.0 °F 93.8 °F 62.1 °F 36% 29.77 in 10.0 mi SE 8.1 mph - N/A   Partly Cloudy
10:53 PM 91.4 °F 92.1 °F 62.6 °F 38% 29.80 in 10.0 mi North 4.6 mph - N/A   Scattered Clouds
11:04 PM 91.4 °F 93.2 °F 64.4 °F 41% 29.87 in 10.0 mi NE 15.0 mph - 0.00 in Rain , Thunderstorm Light Thunderstorms and Rain
11:53 PM 77.0 °F - 73.0 °F 88% 29.82 in 8.0 mi SW 8.1 mph - 0.27 in Rain , Thunderstorm Light Thunderstorms and Rain